Location: Passau
(48.5830°N, 13.4830°E)
Time: 21:39:52
(UTC+02:00)

Vanguard 3 - Pass Details

Date: 21 May 2024
Orbit: 509 x 3231 km, 33.3° (Epoch: 16 June)

Event Time Altitude Azimuth Distance (km) Brightness Sun altitude
Rises 23:51:21 0° 262° (W) 5,469 11.5 -19.4°
Reaches altitude 10° 23:54:44 10° 256° (WSW) 4,796 11.1 -19.5°
Maximum altitude 00:08:04 42° 192° (SSW) 3,753 10.0 -20.1°
Drops below altitude 10° 00:25:27 10° 131° (SE) 6,152 11.2 -20.7°
Sets 00:30:33 0° 126° (SE) 7,099 11.6 -20.8°
